FW7706 Weather Reports


time (UTC)temp
F
wind
direction
speed
knots
gust
knots
rain 1hr
in
rain 24hr
in
rain mn
in
humidity
%
barometer
mb
20220627212005 88 199 1.7 2.6 0.00 0.00 0.00 60 1021.5
20220627211505 87 40 2.6 4.3 0.00 0.00 0.00 61 1021.5
20220627211004 87 55 5.2 7.8 0.00 0.00 0.00 62 1021.5
20220627210503 89 29 4.3 5.2 0.00 0.00 0.00 60 1021.9
20220627210002 88 27 1.7 1.7 0.00 0.00 0.00 60 1021.5
20220627205501 88 87 6.1 7.8 0.00 0.00 0.00 60 1021.9
20220627205001 89 72 5.2 6.1 0.00 0.00 0.00 60 1022.2
20220627204459 89 53 2.6 4.3 0.00 0.00 0.00 60 1021.9
20220627203959 89 209 0.0 0.9 0.00 0.00 0.00 59 1021.9
20220627203459 89 97 1.7 1.7 0.00 0.00 0.00 60 1021.9
20220627202959 89 99 0.9 0.9 0.00 0.00 0.00 59 1021.9
20220627202458 90 61 5.2 7.8 0.00 0.00 0.00 59 1022.2
20220627201956 90 81 4.3 7.0 0.00 0.00 0.00 57 1021.9
20220627201455 91 116 1.7 2.6 0.00 0.00 0.00 56 1022.2
20220627200955 89 309 0.0 0.9 0.00 0.00 0.00 59 1022.6
20220627200455 91 48 3.5 5.2 0.00 0.00 0.00 57 1022.6
20220627195954 91 34 3.5 5.2 0.00 0.00 0.00 56 1022.6
20220627195453 88 188 1.7 1.7 0.00 0.00 0.00 58 1022.2
20220627194953 87 73 4.3 5.2 0.00 0.00 0.00 60 1022.6
20220627194452 87 25 2.6 2.6 0.00 0.00 0.00 60 1022.6
20220627193952 88 38 3.5 4.3 0.00 0.00 0.00 59 1022.6
20220627193451 86 89 2.6 4.3 0.00 0.00 0.00 62 1022.6
20220627192950 87 54 0.9 1.7 0.00 0.00 0.00 61 1022.9
20220627192449 86 1 5.2 6.1 0.00 0.00 0.00 62 1022.6
20220627191948 87 3 4.3 6.1 0.00 0.00 0.00 60 1022.9
20220627191447 86 18 4.3 7.8 0.00 0.00 0.00 62 1023.2
20220627190946 88 110 2.6 4.3 0.00 0.00 0.00 59 1022.9
20220627190444 88 36 4.3 6.1 0.00 0.00 0.00 60 1022.9
20220627185943 86 144 2.6 5.2 0.00 0.00 0.00 61 1023.2
20220627185443 87 61 2.6 4.3 0.00 0.00 0.00 61 1023.2
20220627184943 86 66 3.5 4.3 0.00 0.00 0.00 63 1023.2
20220627184441 88 57 6.1 7.8 0.00 0.00 0.00 60 1023.2
20220627183939 89 7 2.6 2.6 0.00 0.00 0.00 56 1023.2
20220627183438 87 81 4.3 5.2 0.00 0.00 0.00 61 1023.2
20220627182937 87 322 3.5 5.2 0.00 0.00 0.00 61 1023.2
20220627182436 86 142 1.7 1.7 0.00 0.00 0.00 61 1023.6
20220627181934 87 137 4.3 6.1 0.00 0.00 0.00 64 1023.6
20220627181433 86 59 3.5 5.2 0.00 0.00 0.00 63 1023.6
20220627180932 86 101 2.6 2.6 0.00 0.00 0.00 64 1023.6
20220627180432 87 85 7.8 9.6 0.00 0.00 0.00 62 1023.6
20220627175931 86 92 2.6 4.3 0.00 0.00 0.00 62 1023.6
20220627175430 86 351 0.9 1.7 0.00 0.00 0.00 64 1023.9
20220627174929 86 91 2.6 4.3 0.00 0.00 0.00 65 1023.6
20220627174428 86 72 2.6 2.6 0.00 0.00 0.00 64 1023.9
20220627173927 85 85 6.1 6.1 0.00 0.00 0.00 64 1023.9
20220627173424 86 95 0.9 1.7 0.00 0.00 0.00 65 1023.9
20220627172922 84 128 4.3 5.2 0.00 0.00 0.00 66 1023.9
20220627172421 84 65 5.2 6.1 0.00 0.00 0.00 67 1023.6
20220627171919 85 52 4.3 5.2 0.00 0.00 0.00 66 1023.9
20220627171418 85 140 1.7 2.6 0.00 0.00 0.00 67 1023.9
20220627170918 84 95 2.6 2.6 0.00 0.00 0.00 67 1023.9
20220627170417 85 69 0.9 1.7 0.00 0.00 0.00 67 1023.9
20220627165916 84 56 5.2 7.0 0.00 0.00 0.00 69 1023.9
20220627165416 84 108 0.0 0.9 0.00 0.00 0.00 67 1023.6
20220627164915 84 54 3.5 5.2 0.00 0.00 0.00 69 1024.3
20220627164414 85 314 1.7 2.6 0.00 0.00 0.00 67 1023.9
20220627163913 84 122 1.7 2.6 0.00 0.00 0.00 68 1023.6
20220627163413 84 11 1.7 1.7 0.00 0.00 0.00 70 1023.9
20220627162912 84 344 5.2 7.0 0.00 0.00 0.00 71 1023.6
20220627162411 84 145 1.7 1.7 0.00 0.00 0.00 70 1023.6
20220627161912 84 213 0.9 1.7 0.00 0.00 0.00 70 1023.6
20220627161410 84 173 1.7 1.7 0.00 0.00 0.00 69 1023.6
20220627160908 84 72 3.5 5.2 0.00 0.00 0.00 68 1023.6
20220627160407 85 212 0.9 0.9 0.00 0.00 0.00 68 1023.9
20220627155906 84 158 3.5 6.1 0.00 0.00 0.00 69 1023.9
20220627155405 84 33 1.7 1.7 0.00 0.00 0.00 68 1023.6
20220627154904 85 212 5.2 7.8 0.00 0.00 0.00 68 1023.9
20220627154402 85 33 2.6 2.6 0.00 0.00 0.00 68 1023.9
20220627153902 84 110 0.9 0.9 0.00 0.00 0.00 68 1023.6
20220627153402 84 156 4.3 5.2 0.00 0.00 0.00 69 1023.9
20220627152902 84 133 1.7 1.7 0.00 0.00 0.00 69 1023.9
20220627152400 84 109 1.7 2.6 0.00 0.00 0.00 69 1023.6
20220627151859 83 34 2.6 2.6 0.00 0.00 0.00 71 1023.6
20220627151358 82 172 1.7 2.6 0.00 0.00 0.00 71 1023.9
20220627150857 82 247 2.6 2.6 0.00 0.00 0.00 71 1023.9
20220627150358 82 175 4.3 7.8 0.00 0.00 0.00 69 1023.9
20220627145857 82 162 0.0 0.9 0.00 0.00 0.00 72 1023.9
20220627145355 81 13 0.9 1.7 0.00 0.00 0.00 74 1023.9
20220627144855 81 99 4.3 7.0 0.00 0.00 0.00 74 1024.3
20220627144354 82 81 4.3 6.1 0.00 0.00 0.00 72 1023.9
20220627143853 82 109 1.7 2.6 0.00 0.00 0.00 72 1024.3
20220627143353 82 93 4.3 6.1 0.00 0.00 0.00 72 1023.9
20220627142852 82 105 1.7 2.6 0.00 0.00 0.00 73 1023.6
20220627142350 81 128 1.7 4.3 0.00 0.00 0.00 75 1023.9
20220627141850 80 193 0.9 0.9 0.00 0.00 0.00 76 1023.9
20220627141349 81 97 5.2 7.0 0.00 0.00 0.00 75 1024.3
20220627140849 81 45 1.7 2.6 0.00 0.00 0.00 74 1023.9
20220627140348 81 90 1.7 1.7 0.00 0.00 0.00 75 1023.9
20220627135847 80 178 2.6 5.2 0.00 0.00 0.00 75 1023.9
20220627135346 80 190 2.6 2.6 0.00 0.00 0.00 76 1023.6
20220627134845 80 191 1.7 1.7 0.00 0.00 0.00 76 1023.6
20220627134344 80 90 3.5 5.2 0.00 0.00 0.00 75 1023.6
20220627133844 79 121 0.9 1.7 0.00 0.00 0.00 78 1023.6
20220627133344 78 66 5.2 7.0 0.00 0.00 0.00 77 1023.6
20220627132844 78 28 3.5 5.2 0.00 0.00 0.00 78 1023.6
20220627132342 78 59 1.7 1.7 0.00 0.00 0.00 77 1023.6
20220627131841 77 70 2.6 2.6 0.00 0.00 0.00 77 1023.6
20220627131340 77 53 2.6 4.3 0.00 0.00 0.00 76 1023.6
20220627130839 76 49 2.6 2.6 0.00 0.00 0.00 76 1023.6
20220627130338 76 62 4.3 5.2 0.00 0.00 0.00 75 1023.6
20220627125838 76 7 0.9 1.7 0.00 0.00 0.00 75 1023.6
20220627125336 75 69 4.3 6.1 0.00 0.00 0.00 75 1023.6
20220627124835 75 156 1.7 1.7 0.00 0.00 0.00 74 1023.2
20220627124335 74 55 1.7 1.7 0.00 0.00 0.00 74 1023.2
20220627123835 74 335 1.7 1.7 0.00 0.00 0.00 74 1023.2
20220627123333 73 17 1.7 2.6 0.00 0.00 0.00 74 1023.2
20220627122833 73 66 2.6 4.3 0.00 0.00 0.00 74 1022.9
20220627122333 73 252 1.7 2.6 0.00 0.00 0.00 74 1022.9
20220627121834 73 19 2.6 2.6 0.00 0.00 0.00 74 1022.6
20220627121333 72 16 0.9 0.9 0.00 0.00 0.00 75 1022.9
20220627120832 72 210 0.0 0.9 0.00 0.00 0.00 75 1023.2
20220627120331 71 22 0.9 0.9 0.00 0.00 0.00 76 1022.9
20220627115830 71 219 0.9 0.9 0.00 0.00 0.00 76 1022.6
20220627115329 71 345 1.7 1.7 0.00 0.00 0.00 75 1022.6
20220627114829 71 21 1.7 1.7 0.00 0.00 0.00 75 1022.9
20220627114328 71 355 0.9 0.9 0.00 0.00 0.00 76 1022.6
20220627113828 71 61 1.7 1.7 0.00 0.00 0.00 75 1022.6
20220627113327 71 192 0.9 0.9 0.00 0.00 0.00 76 1022.6
20220627112826 71 182 0.9 0.9 0.00 0.00 0.00 76 1022.6
20220627112326 71 48 1.7 1.7 0.00 0.00 0.00 75 1022.6
20220627111825 71 58 1.7 1.7 0.00 0.00 0.00 75 1022.6
20220627111324 71 14 0.9 1.7 0.00 0.00 0.00 76 1022.6
20220627110824 71 287 2.6 2.6 0.00 0.00 0.00 75 1022.6
20220627110323 71 13 1.7 1.7 0.00 0.00 0.00 75 1022.6
20220627105823 71 234 0.9 0.9 0.00 0.00 0.00 75 1022.6
20220627105322 71 336 1.7 1.7 0.00 0.00 0.00 75 1022.6
20220627104821 71 29 1.7 1.7 0.00 0.00 0.00 75 1022.6
20220627104320 71 44 1.7 1.7 0.00 0.00 0.00 75 1022.6
20220627103819 71 2 1.7 1.7 0.00 0.00 0.00 75 1022.6
20220627103318 71 245 0.9 0.9 0.00 0.00 0.00 76 1022.6
20220627102818 72 227 0.9 0.9 0.00 0.00 0.00 76 1022.6
20220627102318 72 221 0.0 0.9 0.00 0.00 0.00 76 1022.6
20220627101817 72 262 0.9 0.9 0.00 0.00 0.00 76 1022.2
20220627101316 72 243 0.0 0.9 0.00 0.00 0.00 76 1022.2
20220627100816 72 230 0.9 0.9 0.00 0.00 0.00 76 1022.6
20220627100316 72 289 1.7 1.7 0.00 0.00 0.00 76 1022.2
20220627095815 72 244 0.9 0.9 0.00 0.00 0.00 75 1022.6
20220627095314 72 232 0.9 1.7 0.00 0.00 0.00 75 1022.2
20220627094813 72 306 0.9 0.9 0.00 0.00 0.00 74 1022.2
20220627094312 72 316 0.9 1.7 0.00 0.00 0.00 74 1022.6
20220627093811 72 78 0.9 0.9 0.00 0.00 0.00 74 1022.2
20220627093310 73 17 0.9 1.7 0.00 0.00 0.00 74 1022.6
20220627092809 73 296 1.7 1.7 0.00 0.00 0.00 74 1022.2
20220627092308 73 83 0.9 0.9 0.00 0.00 0.00 75 1022.2
20220627091807 73 345 0.9 1.7 0.00 0.00 0.00 75 1022.2
20220627091306 73 236 0.9 0.9 0.00 0.00 0.00 75 1021.9
20220627090806 73 254 0.9 0.9 0.00 0.00 0.00 75 1022.2
20220627090306 73 341 1.7 1.7 0.00 0.00 0.00 75 1022.2
20220627085806 73 244 0.0 0.9 0.00 0.00 0.00 76 1022.2
20220627085305 73 41 2.6 2.6 0.00 0.00 0.00 75 1022.2
20220627084805 74 233 0.9 1.7 0.00 0.00 0.00 75 1022.2
20220627084303 74 38 2.6 4.3 0.00 0.00 0.00 76 1022.6
20220627083802 74 247 0.9 1.7 0.00 0.00 0.00 76 1022.2
20220627083301 74 247 1.7 1.7 0.00 0.00 0.00 77 1022.2
20220627082801 74 268 0.0 0.9 0.00 0.00 0.00 77 1022.2
20220627082300 74 304 0.9 1.7 0.00 0.00 0.00 78 1022.2
20220627081800 74 346 0.0 0.9 0.00 0.00 0.00 78 1022.2
20220627081300 74 301 0.9 1.7 0.00 0.00 0.00 78 1022.2
20220627080759 75 231 0.9 0.9 0.00 0.00 0.00 78 1021.9
20220627080258 74 297 0.9 0.9 0.00 0.00 0.00 79 1021.9
20220627075757 74 222 0.0 0.0 0.00 0.00 0.00 80 1022.2
20220627075256 74 317 2.6 2.6 0.00 0.00 0.00 81 1021.9
20220627074755 74 317 0.9 0.9 0.00 0.00 0.00 83 1021.9
20220627074253 74 323 0.0 0.9 0.00 0.00 0.00 84 1021.9
20220627073753 74 335 0.9 0.9 0.00 0.00 0.00 84 1021.9
20220627073253 74 240 0.0 0.9 0.00 0.00 0.00 85 1022.2
20220627072752 75 260 0.9 1.7 0.00 0.00 0.00 85 1021.9
20220627072250 74 196 0.9 1.7 0.00 0.00 0.00 85 1021.9
20220627071749 75 237 0.9 1.7 0.00 0.00 0.00 86 1021.9
20220627071248 75 263 0.9 0.9 0.00 0.00 0.00 86 1021.9
20220627070748 75 223 0.0 0.0 0.00 0.00 0.00 85 1021.9
20220627070247 75 223 0.0 0.0 0.00 0.00 0.00 85 1021.9
20220627065746 75 224 0.0 0.0 0.00 0.00 0.00 85 1021.9
20220627065245 75 242 0.0 0.9 0.00 0.00 0.00 85 1021.9
20220627064744 75 227 0.0 0.9 0.00 0.00 0.00 86 1021.9
20220627064243 75 227 0.0 0.0 0.00 0.00 0.00 86 1021.9
20220627063743 75 227 0.0 0.0 0.00 0.00 0.00 86 1021.9
20220627063242 75 225 0.0 0.0 0.00 0.00 0.00 85 1021.9
20220627062741 75 223 0.0 0.0 0.00 0.00 0.00 85 1021.9
20220627062240 75 244 0.9 0.9 0.00 0.00 0.00 85 1021.9
20220627061739 75 117 0.9 0.9 0.00 0.00 0.00 84 1021.9
20220627061239 76 236 0.0 0.9 0.00 0.00 0.00 84 1021.5
20220627060737 76 231 0.9 0.9 0.00 0.00 0.00 83 1021.9
20220627060236 76 228 0.9 0.9 0.00 0.00 0.00 83 1021.9
20220627055734 76 218 0.0 0.0 0.00 0.00 0.00 83 1021.9
20220627055233 76 233 0.0 0.9 0.00 0.00 0.00 83 1021.9
20220627054732 76 46 0.9 1.7 0.00 0.00 0.00 83 1021.9
20220627054231 76 224 0.9 0.9 0.00 0.00 0.00 83 1021.9
20220627053730 77 207 0.9 0.9 0.00 0.00 0.00 83 1021.9
20220627053230 77 305 0.0 0.0 0.00 0.00 0.00 83 1021.9
20220627052729 77 286 0.9 0.9 0.00 0.00 0.00 83 1021.9
20220627052227 77 12 0.0 0.9 0.00 0.00 0.00 83 1021.9
20220627051727 77 10 0.9 0.9 0.00 0.00 0.00 83 1021.9
20220627051226 77 11 0.9 0.9 0.00 0.00 0.00 83 1021.9
20220627050724 77 209 0.0 0.0 0.00 0.00 0.00 82 1021.9
20220627050222 78 207 0.0 0.9 0.00 0.00 0.00 82 1021.9
20220627045722 78 251 0.9 1.7 0.00 0.00 0.00 82 1021.9
20220627045221 78 217 0.0 0.0 0.00 0.00 0.00 82 1021.9
20220627044719 78 248 0.9 0.9 0.00 0.00 0.00 81 1021.9
20220627044218 78 189 0.0 0.0 0.00 0.00 0.00 80 1021.9
20220627043718 79 201 0.9 0.9 0.00 0.00 0.00 79 1021.9
20220627043217 79 201 0.0 0.9 0.00 0.00 0.00 79 1021.9
20220627042716 79 158 0.9 0.9 0.00 0.00 0.00 78 1021.9
20220627042215 80 212 0.0 0.9 0.00 0.00 0.00 77 1021.9
20220627041715 80 197 0.0 0.9 0.00 0.00 0.00 76 1021.9
20220627041213 80 87 0.9 1.7 0.00 0.00 0.00 76 1021.9
20220627040712 80 220 0.0 0.9 0.00 0.00 0.00 76 1021.5
20220627040211 81 176 0.9 1.7 0.00 0.00 0.00 75 1021.5
20220627035710 81 58 0.9 1.7 0.00 0.00 0.00 74 1021.9
20220627035209 81 241 1.7 1.7 0.00 0.00 0.00 73 1021.5
20220627034708 82 100 1.7 2.6 0.00 0.00 0.00 72 1021.9
20220627034207 82 187 3.5 5.2 0.00 0.00 0.00 71 1021.5
20220627033707 83 244 1.7 2.6 0.00 0.00 0.00 70 1021.5
20220627033205 84 70 4.3 7.0 0.00 0.00 0.00 69 1021.9
20220627032704 84 173 1.7 1.7 0.00 0.00 0.00 68 1021.5
20220627032205 85 71 2.6 2.6 0.00 0.00 0.00 67 1021.5
20220627031704 86 126 6.1 7.0 0.00 0.00 0.00 66 1021.9
20220627031203 86 145 1.7 2.6 0.00 0.00 0.00 69 1021.2
20220627030703 85 100 2.6 4.3 0.00 0.00 0.00 69 1021.2
20220627030203 85 46 4.3 7.0 0.00 0.00 0.00 69 1021.2
20220627025702 86 2 2.6 2.6 0.00 0.00 0.00 69 1020.8
20220627025200 86 47 2.6 4.3 0.00 0.00 0.00 69 1020.8
20220627024700 86 179 4.3 6.1 0.00 0.00 0.00 68 1020.8
20220627024159 86 267 2.6 2.6 0.00 0.00 0.00 68 1020.8
20220627023657 86 35 2.6 4.3 0.00 0.00 0.00 68 1020.4
20220627023157 86 63 2.6 4.3 0.00 0.00 0.00 69 1020.8
20220627022657 87 1 3.5 6.1 0.00 0.00 0.00 69 1020.4
20220627022156 87 42 2.6 6.1 0.00 0.00 0.00 68 1020.1
20220627021656 87 254 3.5 6.1 0.00 0.00 0.00 69 1020.1
20220627021155 87 36 3.5 6.1 0.00 0.00 0.00 70 1020.4
20220627020656 87 55 4.3 6.1 0.00 0.00 0.00 70 1020.1
20220627020154 87 249 1.7 2.6 0.00 0.00 0.00 71 1019.8
20220627015652 87 356 1.7 1.7 0.00 0.00 0.00 71 1019.8
20220627015151 88 249 2.6 2.6 0.00 0.00 0.00 70 1019.4
20220627014650 88 178 1.7 1.7 0.00 0.00 0.00 70 1019.4
20220627014149 88 21 3.5 5.2 0.00 0.00 0.00 70 1019.4
20220627013648 88 340 2.6 4.3 0.00 0.00 0.00 69 1019.4
20220627013147 89 251 1.7 1.7 0.00 0.00 0.00 68 1019.1
20220627012646 89 353 2.6 4.3 0.00 0.00 0.00 68 1019.1
20220627012145 89 28 2.6 4.3 0.00 0.00 0.00 67 1018.4
20220627011644 90 16 0.9 1.7 0.00 0.00 0.00 66 1018.7
20220627011143 90 313 2.6 4.3 0.00 0.00 0.00 66 1018.7
20220627010642 90 38 4.3 6.1 0.00 0.00 0.00 65 1018.7
20220627010140 91 272 0.9 1.7 0.00 0.00 0.00 62 1018.4
20220627005640 91 299 2.6 2.6 0.00 0.00 0.00 60 1018.4
20220627005139 91 16 1.7 1.7 0.00 0.00 0.00 58 1018.4
20220627004638 92 311 2.6 2.6 0.00 0.00 0.00 57 1018.4
20220627004137 92 188 1.7 2.6 0.00 0.00 0.00 56 1018.4
20220627003636 93 115 1.7 1.7 0.00 0.00 0.00 55 1018.4
20220627003135 93 64 1.7 1.7 0.00 0.00 0.00 54 1018.4
20220627002635 93 252 2.6 4.3 0.00 0.00 0.00 54 1018.1
20220627002134 93 254 1.7 1.7 0.00 0.00 0.00 54 1018.1
20220627001634 93 36 3.5 5.2 0.00 0.00 0.00 53 1018.1
20220627001133 94 326 0.9 1.7 0.00 0.00 0.00 53 1018.1
20220627000632 94 38 1.7 1.7 0.00 0.00 0.00 52 1018.1
20220627000131 95 13 2.6 2.6 0.00 0.00 0.00 50 1018.1
20220626235629 95 14 4.3 5.2 0.00 0.00 0.00 49 1018.1
20220626235128 95 155 2.6 4.3 0.00 0.00 0.00 48 1018.1
20220626234627 95 62 2.6 2.6 0.00 0.00 0.00 49 1017.7
20220626234126 96 290 2.6 2.6 0.00 0.00 0.00 47 1017.7
20220626233625 97 53 0.9 1.7 0.00 0.00 0.00 45 1017.7
20220626233124 98 295 0.9 0.9 0.00 0.00 0.00 43 1017.7
20220626232624 98 307 1.7 1.7 0.00 0.00 0.00 42 1017.7
20220626232122 97 310 0.9 1.7 0.00 0.00 0.00 42 1017.7
20220626231621 99 17 1.7 1.7 0.00 0.00 0.00 43 1017.4
20220626231120 97 131 0.9 1.7 0.00 0.00 0.00 41 1017.0
20220626230619 98 318 2.6 2.6 0.00 0.00 0.00 44 1017.4
20220626230118 98 108 1.7 2.6 0.00 0.00 0.00 43 1017.4
20220626225618 99 37 3.5 5.2 0.00 0.00 0.00 43 1017.4
20220626225117 98 302 1.7 1.7 0.00 0.00 0.00 42 1017.4
20220626224616 98 358 1.7 2.6 0.00 0.00 0.00 44 1017.0
20220626224116 98 84 3.5 5.2 0.00 0.00 0.00 44 1017.0
20220626223615 98 8 4.3 5.2 0.00 0.00 0.00 45 1017.0
20220626223114 98 32 1.7 1.7 0.00 0.00 0.00 43 1017.4
20220626222613 98 13 3.5 5.2 0.00 0.00 0.00 43 1017.4
20220626222112 99 305 2.6 4.3 0.00 0.00 0.00 42 1017.4
20220626221610 99 151 0.9 1.7 0.00 0.00 0.00 42 1017.4
20220626221110 100 42 4.3 7.0 0.00 0.00 0.00 41 1017.7
20220626220609 101 178 1.7 2.6 0.00 0.00 0.00 39 1017.4
20220626220107 100 292 1.7 1.7 0.00 0.00 0.00 40 1017.4
20220626215606 101 173 0.9 1.7 0.00 0.00 0.00 39 1017.7
20220626215105 101 205 0.9 0.9 0.00 0.00 0.00 39 1017.7
20220626214604 100 210 0.0 0.9 0.00 0.00 0.00 38 1017.7
20220626214104 101 284 2.6 2.6 0.00 0.00 0.00 40 1017.4
20220626213604 100 293 0.9 0.9 0.00 0.00 0.00 41 1018.1
20220626213103 99 14 4.3 7.0 0.00 0.00 0.00 40 1017.4
20220626212602 100 40 4.3 7.0 0.00 0.00 0.00 39 1017.4